Torna al catalogo

SL-8 R/B

AttivoLEO
NORAD 11136·ROCKET BODY·🇷🇺 Russia

Lanciato Dec 5, 1978 da Plesetsk Cosmodrome

Loading…

Prossimi Passaggi (prossime 24 ore)

TLE

AggiornatoSource: Space-Track

Epoca: Sep 14, 2026, 09:27 UTC

1 11136U 78109J   26257.39411932 -.00000099  00000-0 -80098-3 0  9999
2 11136  74.0129  55.1284 0130709  22.9605 337.7199 12.19169132126616

Traccia SL-8 R/B in tempo reale con AllMySat

Download on the App Store